QPF
0.01 0.02 0.02 0.02 0.04 0.06 0.07 0.07 0.08 0.11 0.12 0.11 0.08 0.07 0.06 0.06 0.05 0.06 0.04 0.04 0.04 0.04 0.05 0.07 0.07 0.05 0.05 0.04 0.04 0.05 0.06 0.05 0.04 0.06 0.08 0.07 0.05 0.05 0.04 0.04 0.05 0.03 0.03
0.01 0.01 0.02 0.02 0.04 0.06 0.07 0.07 0.07 0.08 0.09 0.10 0.10 0.10 0.10 0.07 0.06 0.07 0.05 0.04 0.04 0.03 0.04 0.07 0.06 0.06 0.06 0.04 0.04 0.06 0.07 0.05 0.04 0.05 0.08 0.09 0.12 0.10 0.04 0.05 0.06 0.07 0.06
0.01 0.01 0.02 0.03 0.04 0.05 0.05 0.05 0.06 0.07 0.08 0.11 0.10 0.11 0.11 0.09 0.08 0.07 0.06 0.05 0.05 0.04 0.03 0.06 0.06 0.06 0.05 0.06 0.05 0.05 0.04 0.05 0.04 0.03 0.06 0.09 0.12 0.12 0.08 0.05 0.06 0.08 0.10
0.01 0.01 0.02 0.03 0.04 0.04 0.04 0.05 0.06 0.06 0.06 0.07 0.07 0.06 0.06 0.06 0.06 0.08 0.06 0.05 0.04 0.04 0.03 0.04 0.05 0.05 0.05 0.05 0.04 0.04 0.04 0.05 0.05 0.05 0.05 0.06 0.08 0.11 0.12 0.09 0.06 0.06 0.06
0.01 0.02 0.02 0.03 0.03 0.04 0.04 0.05 0.07 0.06 0.05 0.06 0.07 0.08 0.08 0.08 0.08 0.08 0.06 0.05 0.05 0.03 0.03 0.03 0.03 0.03 0.03 0.02 0.02 0.03 0.02 0.02 0.03 0.05 0.05 0.05 0.04 0.04 0.07 0.10 0.09 0.07 0.05
0.01 0.03 0.03 0.04 0.04 0.04 0.05 0.06 0.07 0.07 0.06 0.06 0.06 0.06 0.07 0.10 0.09 0.08 0.07 0.06 0.05 0.04 0.03 0.02 0.03 0.02 0.02 0.01 0.01 0.01 0.01 0.02 0.03 0.03 0.02 0.03 0.03 0.02 0.03 0.06 0.07 0.08 0.07
0.00 0.03 0.06 0.04 0.03 0.03 0.04 0.05 0.07 0.08 0.07 0.06 0.05 0.05 0.07 0.08 0.08 0.07 0.06 0.05 0.04 0.03 0.03 0.02 0.02 0.02 0.02 0.01 0.01 0.01 0.02 0.02 0.02 0.02 0.02 0.01 0.01 0.01 0.02 0.02 0.03 0.04 0.04
0.01 0.01 0.04 0.04 0.03 0.03 0.04 0.05 0.08 0.10 0.08 0.06 0.06 0.06 0.07 0.06 0.05 0.05 0.05 0.04 0.04 0.04 0.03 0.02 0.01 0.01 0.01 0.01 0.01 0.01 0.01 0.01 0.01 0.01 0.01 0.01 0.01 0.01 0.01 0.01 0.02 0.02 0.04
0.00 0.01 0.03 0.03 0.04 0.04 0.04 0.05 0.08 0.10 0.10 0.07 0.06 0.06 0.06 0.05 0.05 0.04 0.04 0.04 0.03 0.02 0.02 0.02 0.01 0.01 0.01 0.02 0.02 0.01 0.01 0.01 0.02 0.02 0.01 0.01 0.01 0.01 0.00 0.00 0.00 0.01 0.03
0.00 0.01 0.01 0.02 0.03 0.03 0.03 0.04 0.06 0.09 0.10 0.08 0.06 0.05 0.06 0.05 0.05 0.04 0.03 0.03 0.02 0.01 0.02 0.01 0.02 0.02 0.02 0.02 0.02 0.02 0.02 0.02 0.02 0.02 0.02 0.02 0.01 0.00 0.00 0.00 0.00 0.00 0.02
0.00 0.01 0.01 0.01 0.02 0.03 0.02 0.03 0.04 0.06 0.07 0.07 0.06 0.06 0.05 0.05 0.04 0.03 0.03 0.03 0.02 0.01 0.01 0.01 0.02 0.02 0.02 0.02 0.02 0.02 0.02 0.02 0.02 0.01 0.01 0.01 0.01 0.00 0.00 0.00 0.00 0.00 0.01
0.01 0.01 0.02 0.02 0.03 0.02 0.02 0.02 0.02 0.04 0.04 0.04 0.04 0.04 0.05 0.05 0.03 0.02 0.02 0.02 0.02 0.02 0.01 0.01 0.01 0.01 0.01 0.02 0.01 0.01 0.01 0.01 0.01 0.01 0.01 0.01 0.01 0.01 0.01 0.01 0.01 0.01 0.01
0.03 0.06 0.03 0.03 0.03 0.03 0.02 0.02 0.02 0.03 0.03 0.03 0.03 0.04 0.04 0.04 0.03 0.02 0.01 0.01 0.01 0.01 0.02 0.02 0.02 0.02 0.01 0.01 0.01 0.01 0.01 0.00 0.01 0.01 0.02 0.01 0.01 0.02 0.02 0.01 0.01 0.01 0.01
0.02 0.05 0.03 0.02 0.02 0.02 0.02 0.02 0.02 0.02 0.02 0.02 0.02 0.03 0.03 0.03 0.02 0.02 0.01 0.01 0.01 0.01 0.01 0.02 0.02 0.02 0.01 0.01 0.01 0.01 0.01 0.01 0.01 0.01 0.01 0.01 0.01 0.02 0.02 0.01 0.01 0.01 0.01
0.02 0.02 0.02 0.03 0.02 0.02 0.02 0.02 0.02 0.02 0.02 0.02 0.02 0.03 0.03 0.03 0.03 0.02 0.02 0.01 0.01 0.01 0.01 0.01 0.01 0.01 0.01 0.01 0.01 0.01 0.01 0.01 0.01 0.00 0.00 0.00 0.01 0.01 0.01 0.00 0.00 0.01 0.00
0.02 0.02 0.03 0.03 0.02 0.02 0.02 0.02 0.02 0.02 0.02 0.02 0.03 0.03 0.04 0.04 0.03 0.03 0.02 0.02 0.01 0.01 0.01 0.01 0.02 0.01 0.00 0.00 0.00 0.00 0.01 0.01 0.00 0.00 0.00 0.00 0.00 0.00 0.00 0.00 0.00 0.00 0.00
0.01 0.02 0.03 0.03 0.04 0.03 0.02 0.02 0.03 0.02 0.02 0.03 0.03 0.04 0.04 0.04 0.03 0.03 0.03 0.02 0.01 0.01 0.01 0.02 0.02 0.01 0.00 0.00 0.00 0.00 0.00 0.00 0.00 0.00 0.00 0.00 0.00 0.00 0.00 0.00 0.00 0.00 0.00
0.01 0.01 0.02 0.05 0.04 0.05 0.05 0.03 0.04 0.03 0.02 0.02 0.03 0.04 0.04 0.04 0.03 0.03 0.03 0.03 0.03 0.03 0.02 0.02 0.01 0.00 0.00 0.00 0.00 0.00 0.00 0.00 0.00 0.00 0.00 0.00 0.00 0.00 0.00 0.00 0.01 0.01 0.01
0.00 0.01 0.01 0.03 0.04 0.06 0.05 0.04 0.06 0.06 0.03 0.03 0.03 0.03 0.03 0.04 0.03 0.02 0.02 0.02 0.03 0.03 0.02 0.02 0.01 0.01 0.01 0.00 0.00 0.00 0.00 0.00 0.00 0.00 0.00 0.00 0.00 0.00 0.01 0.01 0.01 0.01 0.01
0.00 0.00 0.00 0.02 0.04 0.06 0.07 0.05 0.04 0.04 0.04 0.02 0.02 0.03 0.03 0.03 0.02 0.02 0.02 0.02 0.02 0.02 0.03 0.03 0.02 0.01 0.01 0.01 0.01 0.00 0.00 0.00 0.00 0.00 0.00 0.00 0.00 0.01 0.01 0.01 0.01 0.01 0.02
0.00 0.00 0.00 0.02 0.04 0.06 0.07 0.06 0.04 0.04 0.04 0.05 0.03 0.03 0.03 0.03 0.02 0.03 0.03 0.03 0.03 0.02 0.03 0.02 0.02 0.02 0.02 0.02 0.01 0.01 0.01 0.01 0.01 0.02 0.02 0.02 0.02 0.02 0.01 0.01 0.01 0.01 0.02
0.01 0.01 0.02 0.02 0.04 0.05 0.06 0.06 0.05 0.05 0.06 0.06 0.06 0.05 0.03 0.02 0.02 0.03 0.04 0.04 0.04 0.03 0.03 0.03 0.03 0.03 0.03 0.02 0.01 0.01 0.01 0.01 0.01 0.01 0.01 0.01 0.01 0.00 0.00 0.00 0.00 0.00 0.00
0.01 0.02 0.03 0.04 0.04 0.05 0.04 0.05 0.05 0.06 0.06 0.06 0.05 0.05 0.04 0.04 0.04 0.04 0.04 0.04 0.05 0.05 0.04 0.03 0.02 0.02 0.03 0.03 0.02 0.02 0.02 0.01 0.01 0.01 0.01 0.01 0.00 0.00 0.00 0.00 0.00 0.00 0.00
0.03 0.03 0.04 0.04 0.05 0.06 0.05 0.04 0.05 0.06 0.06 0.06 0.06 0.05 0.05 0.05 0.05 0.06 0.05 0.04 0.03 0.03 0.02 0.03 0.03 0.04 0.04 0.03 0.02 0.02 0.03 0.03 0.02 0.02 0.02 0.01 0.01 0.01 0.00 0.00 0.01 0.01 0.01
0.03 0.04 0.05 0.05 0.05 0.05 0.05 0.05 0.06 0.08 0.08 0.07 0.06 0.06 0.04 0.04 0.04 0.04 0.04 0.04 0.03 0.02 0.02 0.02 0.02 0.03 0.03 0.03 0.04 0.04 0.03 0.03 0.03 0.02 0.01 0.01 0.01 0.01 0.02 0.03 0.04 0.04 0.04
0.03 0.03 0.04 0.04 0.04 0.05 0.05 0.06 0.08 0.09 0.09 0.07 0.06 0.05 0.04 0.03 0.03 0.02 0.03 0.02 0.03 0.04 0.04 0.04 0.03 0.03 0.04 0.04 0.03 0.02 0.02 0.02 0.01 0.01 0.00 0.01 0.02 0.03 0.04 0.05 0.04 0.04 0.03
MSLP
1004.44 1005.14 1005.79 1006.40 1006.97 1007.52 1008.09 1008.70 1009.36 1010.06 1010.78 1011.47 1012.09 1012.61 1013.02 1013.33 1013.56 1013.76 1013.95 1014.18 1014.46 1014.79 1015.17 1015.55 1015.93 1016.28 1016.59 1016.85 1017.07 1017.26 1017.44 1017.62 1017.79 1017.96 1018.10 1018.21 1018.27 1018.29 1018.27 1018.23 1018.18 1018.17 1018.21
1004.02 1004.71 1005.35 1005.94 1006.48 1007.00 1007.56 1008.19 1008.91 1009.71 1010.53 1011.35 1012.08 1012.69 1013.16 1013.48 1013.68 1013.82 1013.95 1014.11 1014.35 1014.66 1015.05 1015.48 1015.91 1016.31 1016.67 1016.95 1017.18 1017.36 1017.52 1017.67 1017.83 1017.99 1018.15 1018.28 1018.38 1018.43 1018.42 1018.38 1018.31 1018.26 1018.24
1003.67 1004.34 1004.95 1005.49 1005.97 1006.44 1006.97 1007.59 1008.33 1009.18 1010.10 1011.02 1011.87 1012.59 1013.14 1013.51 1013.73 1013.86 1013.95 1014.09 1014.30 1014.61 1015.01 1015.47 1015.95 1016.39 1016.78 1017.08 1017.30 1017.46 1017.59 1017.71 1017.84 1017.99 1018.16 1018.32 1018.46 1018.55 1018.58 1018.56 1018.49 1018.42 1018.35
1003.40 1004.04 1004.61 1005.10 1005.51 1005.91 1006.36 1006.93 1007.65 1008.52 1009.50 1010.50 1011.46 1012.29 1012.94 1013.40 1013.68 1013.85 1013.96 1014.10 1014.32 1014.64 1015.06 1015.54 1016.05 1016.52 1016.93 1017.24 1017.45 1017.59 1017.68 1017.77 1017.87 1018.00 1018.16 1018.34 1018.51 1018.65 1018.72 1018.74 1018.69 1018.61 1018.52
1003.22 1003.84 1004.38 1004.81 1005.15 1005.47 1005.83 1006.32 1006.98 1007.83 1008.81 1009.87 1010.91 1011.84 1012.60 1013.16 1013.54 1013.78 1013.96 1014.14 1014.38 1014.72 1015.15 1015.66 1016.19 1016.68 1017.10 1017.42 1017.63 1017.75 1017.82 1017.87 1017.94 1018.04 1018.19 1018.38 1018.56 1018.73 1018.84 1018.89 1018.88 1018.81 1018.71
1003.13 1003.76 1004.28 1004.68 1004.96 1005.19 1005.46 1005.85 1006.43 1007.21 1008.17 1009.23 1010.31 1011.31 1012.17 1012.84 1013.32 1013.66 1013.91 1014.15 1014.43 1014.80 1015.25 1015.77 1016.31 1016.82 1017.26 1017.59 1017.80 1017.92 1017.98 1018.01 1018.05 1018.13 1018.26 1018.43 1018.62 1018.79 1018.93 1019.01 1019.02 1018.96 1018.87
1003.15 1003.80 1004.34 1004.72 1004.97 1005.15 1005.34 1005.63 1006.11 1006.80 1007.68 1008.70 1009.77 1010.81 1011.73 1012.49 1013.07 1013.49 1013.83 1014.13 1014.45 1014.84 1015.30 1015.83 1016.38 1016.90 1017.35 1017.70 1017.94 1018.08 1018.14 1018.17 1018.20 1018.26 1018.36 1018.51 1018.67 1018.84 1018.98 1019.07 1019.10 1019.07 1018.98
1003.28 1003.97 1004.55 1004.96 1005.22 1005.37 1005.50 1005.71 1006.10 1006.68 1007.46 1008.40 1009.42 1010.44 1011.38 1012.17 1012.81 1013.31 1013.70 1014.05 1014.41 1014.81 1015.28 1015.80 1016.35 1016.88 1017.35 1017.73 1018.00 1018.18 1018.28 1018.33 1018.36 1018.41 1018.49 1018.60 1018.74 1018.88 1019.00 1019.09 1019.13 1019.12 1019.05
1003.51 1004.26 1004.90 1005.37 1005.66 1005.83 1005.95 1006.12 1006.42 1006.89 1007.56 1008.39 1009.32 1010.26 1011.16 1011.95 1012.60 1013.12 1013.55 1013.93 1014.30 1014.71 1015.17 1015.69 1016.23 1016.76 1017.25 1017.67 1017.99 1018.22 1018.36 1018.45 1018.50 1018.55 1018.62 1018.70 1018.80 1018.90 1019.00 1019.08 1019.13 1019.13 1019.10
1003.80 1004.61 1005.33 1005.88 1006.25 1006.47 1006.62 1006.78 1007.03 1007.42 1007.97 1008.67 1009.47 1010.30 1011.11 1011.83 1012.45 1012.97 1013.39 1013.78 1014.16 1014.56 1015.01 1015.52 1016.05 1016.58 1017.09 1017.53 1017.90 1018.18 1018.38 1018.51 1018.60 1018.66 1018.71 1018.77 1018.84 1018.91 1018.99 1019.05 1019.11 1019.13 1019.13
1004.09 1004.97 1005.75 1006.39 1006.86 1007.17 1007.39 1007.58 1007.81 1008.15 1008.60 1009.17 1009.82 1010.52 1011.20 1011.83 1012.38 1012.85 1013.26 1013.63 1014.00 1014.40 1014.85 1015.33 1015.86 1016.38 1016.89 1017.36 1017.76 1018.08 1018.32 1018.50 1018.61 1018.69 1018.75 1018.79 1018.84 1018.89 1018.95 1019.01 1019.07 1019.12 1019.15
1004.31 1005.22 1006.07 1006.79 1007.36 1007.78 1008.09 1008.35 1008.61 1008.92 1009.30 1009.76 1010.27 1010.82 1011.37 1011.88 1012.34 1012.76 1013.14 1013.50 1013.87 1014.27 1014.71 1015.19 1015.70 1016.21 1016.71 1017.18 1017.59 1017.93 1018.20 1018.39 1018.53 1018.63 1018.69 1018.73 1018.77 1018.82 1018.87 1018.94 1019.02 1019.10 1019.18
1004.37 1005.29 1006.17 1006.96 1007.62 1008.15 1008.58 1008.93 1009.25 1009.57 1009.91 1010.29 1010.69 1011.11 1011.53 1011.93 1012.31 1012.67 1013.02 1013.38 1013.76 1014.17 1014.62 1015.10 1015.59 1016.09 1016.57 1017.01 1017.40 1017.73 1017.99 1018.20 1018.35 1018.45 1018.53 1018.58 1018.63 1018.68 1018.75 1018.84 1018.94 1019.06 1019.17
1004.20 1005.10 1005.99 1006.82 1007.55 1008.19 1008.74 1009.20 1009.60 1009.97 1010.31 1010.64 1010.96 1011.28 1011.60 1011.91 1012.22 1012.55 1012.89 1013.26 1013.66 1014.10 1014.56 1015.04 1015.52 1015.99 1016.43 1016.83 1017.18 1017.48 1017.71 1017.91 1018.05 1018.16 1018.25 1018.33 1018.40 1018.48 1018.57 1018.69 1018.82 1018.96 1019.11
1003.79 1004.64 1005.50 1006.34 1007.14 1007.87 1008.52 1009.10 1009.60 1010.03 1010.41 1010.73 1011.02 1011.27 1011.52 1011.77 1012.05 1012.35 1012.70 1013.10 1013.53 1014.00 1014.49 1014.98 1015.45 1015.89 1016.28 1016.63 1016.92 1017.16 1017.36 1017.52 1017.66 1017.78 1017.89 1017.99 1018.10 1018.22 1018.35 1018.49 1018.65 1018.82 1018.98
1003.15 1003.94 1004.75 1005.59 1006.41 1007.20 1007.95 1008.63 1009.24 1009.75 1010.19 1010.54 1010.82 1011.06 1011.28 1011.51 1011.76 1012.07 1012.43 1012.86 1013.33 1013.83 1014.35 1014.84 1015.31 1015.71 1016.06 1016.35 1016.58 1016.78 1016.94 1017.08 1017.21 1017.35 1017.48 1017.63 1017.78 1017.93 1018.10 1018.27 1018.45 1018.63 1018.79
1002.37 1003.08 1003.84 1004.64 1005.46 1006.29 1007.11 1007.88 1008.57 1009.18 1009.68 1010.08 1010.40 1010.66 1010.88 1011.11 1011.38 1011.69 1012.08 1012.53 1013.03 1013.56 1014.09 1014.59 1015.04 1015.42 1015.73 1015.98 1016.17 1016.33 1016.47 1016.61 1016.75 1016.91 1017.09 1017.28 1017.48 1017.68 1017.88 1018.07 1018.25 1018.41 1018.55
1001.55 1002.19 1002.88 1003.63 1004.43 1005.26 1006.11 1006.93 1007.70 1008.38 1008.96 1009.43 1009.80 1010.11 1010.37 1010.62 1010.90 1011.24 1011.64 1012.11 1012.62 1013.15 1013.69 1014.18 1014.62 1014.99 1015.28 1015.51 1015.69 1015.85 1016.00 1016.16 1016.35 1016.55 1016.78 1017.02 1017.27 1017.50 1017.72 1017.91 1018.07 1018.20 1018.29
1000.83 1001.40 1002.01 1002.69 1003.43 1004.22 1005.06 1005.90 1006.70 1007.44 1008.09 1008.63 1009.08 1009.45 1009.76 1010.06 1010.38 1010.74 1011.15 1011.61 1012.12 1012.65 1013.17 1013.65 1014.08 1014.44 1014.74 1014.99 1015.20 1015.39 1015.59 1015.80 1016.04 1016.31 1016.60 1016.90 1017.18 1017.44 1017.66 1017.84 1017.96 1018.04 1018.06
1000.30 1000.79 1001.31 1001.89 1002.54 1003.26 1004.03 1004.84 1005.65 1006.41 1007.11 1007.73 1008.26 1008.71 1009.10 1009.46 1009.82 1010.21 1010.63 1011.09 1011.58 1012.09 1012.58 1013.05 1013.48 1013.86 1014.19 1014.48 1014.74 1015.00 1015.27 1015.57 1015.89 1016.23 1016.57 1016.91 1017.22 1017.48 1017.69 1017.83 1017.91 1017.91 1017.86
1000.01 1000.42 1000.83 1001.27 1001.79 1002.38 1003.05 1003.78 1004.55 1005.31 1006.04 1006.72 1007.34 1007.88 1008.37 1008.82 1009.25 1009.68 1010.12 1010.58 1011.06 1011.54 1012.02 1012.48 1012.92 1013.32 1013.69 1014.05 1014.39 1014.74 1015.10 1015.48 1015.87 1016.27 1016.66 1017.02 1017.34 1017.59 1017.77 1017.87 1017.88 1017.82 1017.70
999.95 1000.25 1000.52 1000.82 1001.16 1001.59 1002.11 1002.71 1003.39 1004.12 1004.87 1005.61 1006.31 1006.97 1007.58 1008.14 1008.66 1009.16 1009.65 1010.13 1010.61 1011.09 1011.56 1012.02 1012.47 1012.91 1013.34 1013.77 1014.19 1014.63 1015.07 1015.52 1015.97 1016.41 1016.82 1017.18 1017.48 1017.70 1017.83 1017.88 1017.84 1017.72 1017.54
1000.08 1000.25 1000.36 1000.47 1000.61 1000.83 1001.16 1001.61 1002.19 1002.86 1003.60 1004.38 1005.18 1005.96 1006.71 1007.41 1008.06 1008.67 1009.24 1009.77 1010.29 1010.78 1011.27 1011.75 1012.22 1012.70 1013.18 1013.67 1014.16 1014.67 1015.16 1015.66 1016.13 1016.57 1016.96 1017.29 1017.55 1017.73 1017.81 1017.81 1017.73 1017.58 1017.37
1000.34 1000.36 1000.29 1000.19 1000.11 1000.11 1000.23 1000.51 1000.94 1001.53 1002.26 1003.08 1003.97 1004.89 1005.79 1006.66 1007.47 1008.22 1008.91 1009.54 1010.12 1010.66 1011.18 1011.69 1012.20 1012.71 1013.23 1013.76 1014.29 1014.82 1015.33 1015.82 1016.27 1016.68 1017.02 1017.30 1017.49 1017.61 1017.66 1017.62 1017.53 1017.37 1017.16
1000.68 1000.54 1000.29 999.98 999.68 999.46 999.36 999.45 999.75 1000.25 1000.95 1001.81 1002.78 1003.83 1004.90 1005.94 1006.94 1007.85 1008.69 1009.44 1010.12 1010.73 1011.31 1011.86 1012.39 1012.92 1013.46 1013.99 1014.52 1015.03 1015.51 1015.95 1016.35 1016.68 1016.95 1017.15 1017.28 1017.35 1017.36 1017.32 1017.23 1017.11 1016.95
1001.08 1000.79 1000.37 999.87 999.38 998.95 998.67 998.58 998.75 999.16 999.83 1000.71 1001.75 1002.92 1004.14 1005.36 1006.53 1007.62 1008.61 1009.50 1010.28 1010.98 1011.62 1012.20 1012.75 1013.28 1013.80 1014.31 1014.79 1015.24 1015.65 1016.01 1016.31 1016.55 1016.73 1016.86 1016.93 1016.97 1016.97 1016.95 1016.90 1016.84 1016.75
Thickness
5804 5800 5794 5790 5784 5778 5771 5766 5761 5757 5755 5750 5747 5744 5743 5745 5746 5745 5744 5743 5743 5743 5744 5743 5742 5742 5741 5740 5739 5738 5736 5735 5736 5733 5730 5732 5735 5735 5735 5734 5733 5731 5729
5798 5796 5792 5788 5782 5775 5770 5765 5761 5757 5754 5751 5749 5747 5745 5744 5744 5743 5742 5741 5741 5741 5742 5741 5740 5740 5738 5737 5737 5735 5732 5733 5734 5730 5724 5720 5722 5728 5733 5732 5730 5729 5727
5797 5792 5790 5786 5781 5774 5769 5766 5762 5757 5755 5752 5749 5746 5743 5741 5740 5739 5739 5740 5739 5739 5740 5740 5739 5738 5737 5734 5734 5733 5731 5729 5731 5732 5726 5718 5713 5718 5725 5728 5728 5727 5725
5803 5795 5790 5785 5780 5775 5771 5766 5762 5758 5755 5752 5748 5744 5740 5737 5738 5738 5738 5738 5738 5738 5738 5738 5737 5736 5735 5733 5732 5732 5732 5729 5726 5729 5730 5727 5723 5716 5713 5719 5724 5724 5722
5807 5797 5791 5786 5781 5777 5771 5766 5761 5757 5755 5752 5750 5745 5742 5741 5740 5739 5736 5736 5736 5737 5736 5735 5735 5734 5733 5732 5731 5731 5730 5729 5727 5726 5726 5726 5725 5724 5716 5711 5715 5718 5720
5809 5800 5792 5786 5780 5777 5771 5766 5760 5756 5754 5752 5749 5746 5743 5741 5738 5736 5734 5733 5733 5734 5734 5733 5732 5732 5731 5730 5729 5729 5728 5727 5726 5726 5726 5724 5722 5720 5719 5714 5712 5712 5716
5808 5797 5787 5782 5778 5775 5771 5766 5759 5755 5753 5751 5749 5747 5744 5742 5739 5736 5734 5733 5732 5732 5732 5733 5731 5730 5729 5728 5727 5726 5726 5725 5724 5724 5725 5725 5725 5725 5722 5717 5714 5713 5714
5807 5798 5790 5782 5778 5775 5771 5766 5759 5755 5752 5750 5748 5746 5744 5742 5739 5737 5736 5734 5733 5733 5732 5731 5729 5728 5727 5727 5726 5725 5724 5724 5723 5723 5722 5722 5723 5724 5723 5719 5715 5709 5710
5806 5798 5791 5784 5779 5775 5770 5766 5760 5754 5751 5749 5747 5743 5742 5741 5739 5737 5736 5735 5734 5733 5731 5729 5728 5727 5726 5725 5724 5723 5722 5721 5721 5721 5720 5720 5721 5722 5722 5721 5718 5711 5704
5805 5797 5791 5785 5780 5776 5771 5766 5760 5755 5751 5749 5746 5743 5742 5741 5739 5737 5735 5735 5734 5733 5730 5728 5727 5726 5725 5724 5723 5721 5721 5719 5719 5718 5718 5718 5719 5720 5720 5719 5718 5715 5709
5802 5797 5792 5787 5781 5776 5770 5765 5759 5754 5750 5748 5746 5743 5741 5740 5738 5736 5735 5734 5733 5731 5729 5727 5726 5724 5723 5722 5721 5720 5719 5718 5717 5717 5717 5715 5715 5716 5716 5716 5715 5713 5711
5801 5796 5791 5785 5779 5774 5768 5763 5759 5754 5750 5748 5745 5743 5741 5739 5737 5735 5734 5733 5731 5730 5728 5726 5725 5723 5722 5721 5720 5718 5718 5717 5715 5715 5714 5713 5714 5712 5712 5711 5711 5710 5709
5796 5792 5787 5782 5777 5772 5767 5762 5758 5754 5752 5749 5745 5742 5740 5738 5736 5735 5734 5733 5731 5729 5727 5725 5724 5723 5722 5720 5719 5718 5717 5716 5715 5714 5713 5712 5711 5709 5709 5708 5707 5707 5707
5790 5787 5783 5780 5775 5771 5766 5762 5758 5756 5752 5749 5745 5742 5740 5738 5737 5736 5734 5732 5730 5728 5726 5725 5723 5722 5721 5720 5719 5717 5716 5715 5715 5714 5712 5711 5709 5707 5706 5705 5704 5703 5701
5784 5782 5779 5775 5773 5768 5765 5762 5758 5756 5753 5748 5745 5742 5741 5739 5737 5735 5734 5732 5729 5728 5726 5724 5722 5721 5720 5720 5718 5716 5715 5713 5712 5712 5711 5710 5708 5706 5704 5703 5700 5700 5697
5780 5779 5777 5774 5771 5768 5764 5761 5759 5756 5753 5748 5745 5744 5741 5739 5736 5735 5733 5731 5729 5728 5726 5723 5722 5720 5721 5720 5718 5716 5714 5712 5710 5709 5708 5708 5706 5704 5702 5700 5697 5695 5693
5777 5775 5774 5772 5769 5768 5766 5761 5759 5757 5752 5748 5746 5744 5742 5738 5736 5735 5732 5730 5728 5726 5724 5723 5722 5720 5719 5718 5716 5714 5712 5711 5709 5708 5706 5706 5707 5704 5701 5697 5695 5693 5691
5774 5773 5772 5770 5769 5768 5766 5762 5759 5755 5751 5748 5746 5744 5741 5738 5736 5734 5732 5730 5728 5725 5723 5722 5721 5719 5717 5715 5713 5711 5709 5708 5707 5706 5705 5703 5702 5702 5699 5696 5693 5691 5689
5773 5772 5773 5771 5768 5766 5764 5761 5757 5754 5750 5748 5746 5744 5742 5738 5736 5733 5731 5729 5727 5724 5723 5721 5720 5718 5716 5713 5711 5708 5706 5704 5704 5704 5704 5702 5699 5697 5694 5691 5688 5687 5686
5771 5771 5771 5770 5766 5764 5762 5757 5754 5752 5750 5749 5747 5745 5743 5739 5736 5734 5731 5729 5727 5724 5722 5721 5720 5718 5715 5711 5708 5705 5704 5702 5701 5701 5700 5698 5695 5692 5689 5686 5683 5679 5679
5766 5767 5766 5764 5762 5761 5758 5754 5752 5750 5751 5750 5747 5745 5743 5740 5737 5734 5731 5729 5726 5723 5721 5720 5718 5717 5715 5710 5706 5703 5702 5700 5699 5698 5697 5695 5692 5688 5684 5681 5678 5675 5672
5759 5760 5759 5758 5758 5758 5754 5751 5750 5752 5751 5749 5746 5744 5742 5740 5738 5733 5730 5727 5724 5720 5718 5716 5715 5715 5713 5710 5704 5700 5698 5697 5695 5694 5694 5693 5688 5684 5680 5676 5674 5670 5666
5751 5753 5752 5752 5753 5753 5752 5748 5749 5750 5749 5746 5744 5742 5740 5738 5737 5732 5728 5725 5722 5719 5717 5714 5712 5712 5711 5708 5702 5697 5694 5691 5689 5688 5686 5684 5681 5677 5673 5670 5668 5664 5660
5744 5746 5745 5745 5747 5749 5749 5749 5749 5748 5746 5743 5741 5739 5737 5734 5733 5730 5727 5724 5721 5718 5717 5714 5711 5710 5708 5705 5700 5694 5689 5684 5681 5680 5678 5675 5672 5670 5668 5665 5661 5658 5656
5736 5739 5738 5739 5741 5744 5745 5746 5746 5744 5741 5739 5737 5735 5733 5731 5728 5726 5723 5722 5720 5719 5716 5714 5712 5708 5705 5703 5699 5693 5688 5684 5680 5676 5672 5669 5666 5663 5662 5661 5659 5655 5652
5727 5729 5731 5733 5736 5738 5739 5741 5742 5740 5736 5733 5732 5731 5729 5727 5724 5720 5716 5714 5714 5712 5711 5710 5708 5705 5701 5698 5694 5689 5685 5680 5675 5669 5667 5665 5663 5660 5658 5656 5653 5650 5646